Richmond Hanover County, VA

2:40 AM EST on February 23, 2018 (GMT -0500)
Hanover County Municipal

Weather History for KOFP - September, 2013

Change the Weather History Date:

Monday, September 23, 2013

  Actual Average Record
Temperature  
Mean Temperature 58 °F -  
Max Temperature 68 °F 76 °F 98 °F (2010)
Min Temperature 48 °F 53 °F 34 °F (1983)
Degree Days  
Heating Degree Days 7    
Growing Degree Days 8 (Base 50)    
Moisture  
Dew Point 48 °F    
Average Humidity 73    
Maximum Humidity 97    
Minimum Humidity 47    
Precipitation  
Precipitation 0.00 in - - ()
Sea Level Pressure  
Sea Level Pressure 30.06 in    
Wind  
Wind Speed 3 mph (NNW)    
Max Wind Speed 9 mph    
Max Gust Speed -    
Visibility 10 miles    
Events      
Averages and records for this station are not official NWS values.
T = Trace of Precipitation, MM = Missing Value Source: NWS Daily Summary

Daily Weather History Graph

Daily Weather History Graph

Search for Another Location

Airport or City:

Trip Planner

Search our weather history database for the weather conditions in past years. The results will help you decide how hot, cold, wet, or windy it might be!

Date:

Astronomy

Sep. 23, 2013 Rise Set
Actual Time 6:58 AM EDT 7:04 PM EDT
Civil Twilight 6:32 AM EDT 7:30 PM EDT
Nautical Twilight 6:01 AM EDT 8:01 PM EDT
Astronomical Twilight 5:30 AM EDT 8:32 PM EDT
Moon 9:40 PM EDT 11:10 AM EDT
Length of Visible Light 12h 58m
Length of Day
12h 06m
Waning Gibbous, 81% of the Moon is Illuminated
Sep 23
Waning Gibbous
Sep 26
Last Quarter
Oct 4
New
Oct 11
First Quarter
Oct 18
Full

Hourly Weather History & Observations

Time (EDT) Temp. Dew Point Humidity Pressure Visibility Wind Dir Wind Speed Gust Speed Precip Events Conditions
12:54 AM 57.0 °F 48.9 °F 74% 29.96 in 10.0 mi NNW 4.6 mph - N/A   Clear
1:54 AM 55.9 °F 48.9 °F 77% 29.99 in 10.0 mi Calm Calm - N/A   Clear
2:54 AM 53.1 °F 48.9 °F 86% 29.99 in 10.0 mi Calm Calm - N/A   Partly Cloudy
3:54 AM 52.0 °F 48.0 °F 86% 30.00 in 10.0 mi Calm Calm - N/A   Clear
4:54 AM 52.0 °F 48.0 °F 86% 30.01 in 10.0 mi NW 3.5 mph - N/A   Scattered Clouds
5:54 AM 51.1 °F 48.0 °F 89% 30.02 in 10.0 mi Variable 4.6 mph - N/A   Clear
6:54 AM 51.1 °F 46.9 °F 86% 30.05 in 10.0 mi Variable 3.5 mph - N/A   Clear
7:54 AM 52.0 °F 48.0 °F 86% 30.07 in 10.0 mi Calm Calm - N/A   Clear
8:54 AM 57.0 °F 48.0 °F 72% 30.09 in 10.0 mi Variable 5.8 mph - N/A   Clear
9:54 AM 60.1 °F 48.0 °F 64% 30.10 in 10.0 mi North 3.5 mph - N/A   Clear
10:54 AM 60.1 °F 46.0 °F 60% 30.11 in 10.0 mi NNW 6.9 mph - N/A   Mostly Cloudy
11:54 AM 63.0 °F 45.0 °F 52% 30.10 in 10.0 mi Variable 5.8 mph - N/A   Scattered Clouds
12:54 PM 63.0 °F 45.0 °F 52% 30.09 in 10.0 mi NNW 5.8 mph - N/A   Scattered Clouds
1:54 PM 64.9 °F 46.0 °F 50% 30.07 in 10.0 mi Variable 5.8 mph - N/A   Scattered Clouds
2:54 PM 68.0 °F 46.9 °F 47% 30.06 in 10.0 mi Variable 6.9 mph - N/A   Mostly Cloudy
3:54 PM 66.9 °F 46.0 °F 47% 30.06 in 10.0 mi Variable 6.9 mph - N/A   Partly Cloudy
4:54 PM 66.0 °F 45.0 °F 47% 30.06 in 10.0 mi NNW 9.2 mph - N/A   Clear
5:54 PM 64.9 °F 46.0 °F 50% 30.06 in 10.0 mi Calm Calm - N/A   Clear
6:54 PM 57.9 °F 51.1 °F 78% 30.07 in 10.0 mi Calm Calm - N/A   Clear
7:54 PM 53.1 °F 50.0 °F 89% 30.08 in 10.0 mi Calm Calm - N/A   Clear
8:54 PM 51.1 °F 50.0 °F 96% 30.09 in 10.0 mi Calm Calm - N/A   Clear
9:54 PM 50.0 °F 48.9 °F 96% 30.10 in 9.0 mi Calm Calm - N/A   Clear
10:54 PM 48.9 °F 48.0 °F 97% 30.11 in 8.0 mi Calm Calm - N/A   Clear
11:54 PM 48.0 °F 46.9 °F 96% 30.11 in 5.0 mi Calm Calm - N/A   Clear